Time,TemperatureF,DewpointF,PressureIn,WindDirection,WindDirectionDegrees,WindSpeedMPH,WindSpeedGustMPH,Humidity,HourlyPrecipIn,Conditions,Clouds,dailyrainin,SoftwareType,DateUTC
2014-04-24 00:00:00,46.4,6.3,30.09,SSE,158,2.4,2.9,19,0.00,CLR,,0.05,WeatherDisplay:10.37,2014-04-24 04:00:00,
2014-04-24 00:01:00,46.4,6.3,30.09,SSE,158,2.6,3.1,19,0.00,RA,,0.00,WeatherDisplay:10.37,2014-04-24 04:01:00,
2014-04-24 00:02:00,46.4,6.3,30.09,SSE,158,2.4,3.5,19,0.00,RA,,0.00,WeatherDisplay:10.37,2014-04-24 04:02:00,
2014-04-24 00:07:00,46.4,6.3,30.09,SSE,158,3.1,3.1,19,0.00,RA,,0.00,WeatherDisplay:10.37,2014-04-24 04:07:00,
2014-04-24 00:12:00,46.2,7.3,30.09,SE,135,2.0,3.5,20,0.00,CLR,,0.00,WeatherDisplay:10.37,2014-04-24 04:12:00,
2014-04-24 00:17:00,46.2,7.3,30.09,SE,135,2.0,2.4,20,0.00,CLR,,0.00,WeatherDisplay:10.37,2014-04-24 04:17:00,
2014-04-24 00:22:00,46.4,6.3,30.09,SSE,158,3.1,3.5,19,0.00,CLR,,0.00,WeatherDisplay:10.37,2014-04-24 04:22:00,
2014-04-24 00:27:00,46.2,7.3,30.12,SE,135,3.1,3.8,20,0.00,CLR,,0.00,WeatherDisplay:10.37,2014-04-24 04:27:00,
2014-04-24 00:32:00,46.0,7.1,30.12,SSE,158,3.8,4.6,20,0.00,CLR,,0.00,WeatherDisplay:10.37,2014-04-24 04:32:00,
2014-04-24 00:37:00,46.0,9.2,30.12,SSE,158,4.3,4.6,22,0.00,CLR,,0.00,WeatherDisplay:10.37,2014-04-24 04:37:00,
2014-04-24 00:42:00,46.0,9.2,30.12,SE,135,3.1,5.8,22,0.00,CLR,,0.00,WeatherDisplay:10.37,2014-04-24 04:42:00,
2014-04-24 00:47:00,46.0,9.2,30.12,ESE,112,2.6,3.1,22,0.00,CLR,,0.00,WeatherDisplay:10.37,2014-04-24 04:47:00,
2014-04-24 00:52:00,46.0,9.2,30.12,SSE,158,3.1,3.8,22,0.00,CLR,,0.00,WeatherDisplay:10.37,2014-04-24 04:52:00,
2014-04-24 00:57:00,46.0,9.2,30.12,ESE,112,3.3,4.6,22,0.00,CLR,,0.00,WeatherDisplay:10.37,2014-04-24 04:57:00,
2014-04-24 01:02:00,46.0,9.2,30.12,ESE,112,2.6,3.8,22,0.00,CLR,,0.00,WeatherDisplay:10.37,2014-04-24 05:02:00,
2014-04-24 01:07:00,46.0,9.2,30.12,ENE,68,2.6,3.5,22,0.00,CLR,,0.00,WeatherDisplay:10.37,2014-04-24 05:07:00,
2014-04-24 01:12:00,46.0,9.2,30.12,ENE,68,2.9,3.6,22,0.00,CLR,,0.00,WeatherDisplay:10.37,2014-04-24 05:12:00,
2014-04-24 01:17:00,46.0,9.2,30.12,ENE,68,2.6,3.5,22,0.00,CLR,,0.00,WeatherDisplay:10.37,2014-04-24 05:17:00,
2014-04-24 01:22:00,46.0,9.2,30.12,ENE,68,3.1,4.6,22,0.00,CLR,,0.00,WeatherDisplay:10.37,2014-04-24 05:22:00,
2014-04-24 01:27:00,45.9,9.1,30.12,ENE,68,3.3,4.6,22,0.00,CLR,,0.00,WeatherDisplay:10.37,2014-04-24 05:27:00,
2014-04-24 01:32:00,45.7,8.9,30.12,ENE,68,3.8,4.6,22,0.00,CLR,,0.00,WeatherDisplay:10.37,2014-04-24 05:32:00,
2014-04-24 01:37:00,45.7,8.9,30.12,ENE,68,3.8,4.6,22,0.00,CLR,,0.00,WeatherDisplay:10.37,2014-04-24 05:37:00,
2014-04-24 01:42:00,45.7,8.9,30.12,ENE,68,3.3,4.6,22,0.00,CLR,,0.00,WeatherDisplay:10.37,2014-04-24 05:42:00,
2014-04-24 01:47:00,45.5,8.8,30.12,NE,45,3.6,4.6,22,0.00,CLR,,0.00,WeatherDisplay:10.37,2014-04-24 05:47:00,
2014-04-24 01:52:00,45.5,8.8,30.12,ENE,68,2.9,5.8,22,0.00,CLR,,0.00,WeatherDisplay:10.37,2014-04-24 05:52:00,
2014-04-24 01:57:00,45.5,8.8,30.12,ENE,68,2.6,3.5,22,0.00,CLR,,0.00,WeatherDisplay:10.37,2014-04-24 05:57:00,
2014-04-24 02:02:00,45.3,8.6,30.12,NE,45,3.3,5.8,22,0.00,CLR,,0.00,WeatherDisplay:10.37,2014-04-24 06:02:00,
2014-04-24 02:07:00,45.3,8.6,30.12,ENE,68,4.0,5.6,22,0.00,CLR,,0.00,WeatherDisplay:10.37,2014-04-24 06:07:00,
2014-04-24 02:12:00,45.1,8.5,30.12,East,90,3.3,4.6,22,0.00,CLR,,0.00,WeatherDisplay:10.37,2014-04-24 06:12:00,
2014-04-24 02:17:00,45.1,8.5,30.12,ENE,68,4.5,5.8,22,0.00,CLR,,0.00,WeatherDisplay:10.37,2014-04-24 06:17:00,
2014-04-24 02:22:00,45.1,8.5,30.12,East,90,6.0,6.9,22,0.00,CLR,,0.00,WeatherDisplay:10.37,2014-04-24 06:22:00,
2014-04-24 02:27:00,45.0,8.3,30.12,ENE,68,5.6,8.1,22,0.00,CLR,,0.00,WeatherDisplay:10.37,2014-04-24 06:27:00,
2014-04-24 02:32:00,44.8,8.2,30.12,ENE,68,6.7,7.6,22,0.00,CLR,,0.00,WeatherDisplay:10.37,2014-04-24 06:32:00,
2014-04-24 02:37:00,44.6,8.0,30.12,ENE,68,6.2,8.1,22,0.00,CLR,,0.00,WeatherDisplay:10.37,2014-04-24 06:37:00,
2014-04-24 02:42:00,44.6,8.0,30.09,ENE,68,5.4,6.4,22,0.00,CLR,,0.00,WeatherDisplay:10.37,2014-04-24 06:42:00,
2014-04-24 02:47:00,44.4,8.9,30.09,ESE,112,5.9,6.9,23,0.00,CLR,,0.00,WeatherDisplay:10.37,2014-04-24 06:47:00,
2014-04-24 02:52:00,44.2,8.7,30.09,ENE,68,6.2,7.6,23,0.00,CLR,,0.00,WeatherDisplay:10.37,2014-04-24 06:52:00,
2014-04-24 02:57:00,44.2,8.7,30.12,ENE,68,5.6,6.7,23,0.00,CLR,,0.00,WeatherDisplay:10.37,2014-04-24 06:57:00,
2014-04-24 03:02:00,44.1,8.6,30.12,NE,45,3.6,5.8,23,0.00,CLR,,0.00,WeatherDisplay:10.37,2014-04-24 07:02:00,
2014-04-24 03:07:00,43.9,8.4,30.12,NE,45,3.1,4.6,23,0.00,CLR,,0.00,WeatherDisplay:10.37,2014-04-24 07:07:00,
2014-04-24 03:12:00,43.9,8.4,30.09,East,90,2.9,4.6,23,0.00,CLR,,0.00,WeatherDisplay:10.37,2014-04-24 07:12:00,
2014-04-24 03:17:00,43.9,8.4,30.09,ENE,68,3.8,6.9,23,0.00,CLR,,0.00,WeatherDisplay:10.37,2014-04-24 07:17:00,
2014-04-24 03:22:00,43.9,8.4,30.09,ENE,68,3.1,4.9,23,0.00,CLR,,0.00,WeatherDisplay:10.37,2014-04-24 07:22:00,
2014-04-24 03:27:00,43.9,8.4,30.09,ENE,68,2.6,4.7,23,0.00,CLR,,0.00,WeatherDisplay:10.37,2014-04-24 07:27:00,
2014-04-24 03:32:00,43.7,8.3,30.09,East,90,3.8,4.7,23,0.00,CLR,,0.00,WeatherDisplay:10.37,2014-04-24 07:32:00,
2014-04-24 03:37:00,43.7,8.3,30.09,East,90,4.0,5.8,23,0.00,CLR,,0.00,WeatherDisplay:10.37,2014-04-24 07:37:00,
2014-04-24 03:42:00,43.7,5.2,30.09,ENE,68,4.7,5.9,20,0.00,CLR,,0.00,WeatherDisplay:10.37,2014-04-24 07:42:00,
2014-04-24 03:47:00,43.5,5.0,30.09,ENE,68,4.0,5.8,20,0.00,CLR,,0.00,WeatherDisplay:10.37,2014-04-24 07:47:00,
2014-04-24 03:52:00,43.5,5.0,30.09,NNE,22,4.0,4.6,20,0.00,CLR,,0.00,WeatherDisplay:10.37,2014-04-24 07:52:00,
2014-04-24 03:57:00,43.3,4.9,30.09,NE,45,4.0,5.8,20,0.00,CLR,,0.00,WeatherDisplay:10.37,2014-04-24 07:57:00,
2014-04-24 04:02:00,43.3,4.9,30.09,ESE,112,4.7,5.8,20,0.00,CLR,,0.00,WeatherDisplay:10.37,2014-04-24 08:02:00,
2014-04-24 04:07:00,43.3,4.9,30.09,ENE,68,4.0,5.8,20,0.00,CLR,,0.00,WeatherDisplay:10.37,2014-04-24 08:07:00,
2014-04-24 04:12:00,43.2,4.7,30.12,ENE,68,3.6,5.8,20,0.00,CLR,,0.00,WeatherDisplay:10.37,2014-04-24 08:12:00,
2014-04-24 04:17:00,43.2,4.7,30.12,ENE,68,4.7,5.8,20,0.00,CLR,,0.00,WeatherDisplay:10.37,2014-04-24 08:17:00,
2014-04-24 04:22:00,43.2,4.7,30.12,ENE,68,4.3,5.8,20,0.00,CLR,,0.00,WeatherDisplay:10.37,2014-04-24 08:22:00,
2014-04-24 04:27:00,43.2,4.7,30.12,NE,45,3.6,5.9,20,0.00,CLR,,0.00,WeatherDisplay:10.37,2014-04-24 08:27:00,
2014-04-24 04:32:00,43.2,4.7,30.12,ENE,68,2.9,4.3,20,0.00,CLR,,0.00,WeatherDisplay:10.37,2014-04-24 08:32:00,
2014-04-24 04:37:00,43.0,4.6,30.12,ESE,112,3.1,4.7,20,0.00,CLR,,0.00,WeatherDisplay:10.37,2014-04-24 08:37:00,
2014-04-24 04:42:00,43.0,4.6,30.15,ESE,112,2.9,4.6,20,0.00,CLR,,0.00,WeatherDisplay:10.37,2014-04-24 08:42:00,
2014-04-24 04:47:00,43.0,4.6,30.15,ENE,68,2.4,3.5,20,0.00,CLR,,0.00,WeatherDisplay:10.37,2014-04-24 08:47:00,
2014-04-24 04:52:00,43.0,4.6,30.15,ENE,68,3.3,4.6,20,0.00,CLR,,0.00,WeatherDisplay:10.37,2014-04-24 08:52:00,
2014-04-24 04:57:00,43.0,4.6,30.12,ENE,68,3.6,4.6,20,0.00,CLR,,0.00,WeatherDisplay:10.37,2014-04-24 08:57:00,
2014-04-24 05:03:00,43.0,4.6,30.12,ENE,68,3.8,5.8,20,0.00,CLR,,0.00,WeatherDisplay:10.37,2014-04-24 09:03:00,
2014-04-24 05:08:00,43.0,4.6,30.12,ENE,68,2.4,3.5,20,0.00,CLR,,0.00,WeatherDisplay:10.37,2014-04-24 09:08:00,
2014-04-24 05:13:00,43.0,4.6,30.12,ENE,68,3.1,4.7,20,0.00,CLR,,0.00,WeatherDisplay:10.37,2014-04-24 09:13:00,
2014-04-24 05:18:00,43.0,4.6,30.12,ESE,112,1.6,2.3,20,0.00,CLR,,0.00,WeatherDisplay:10.37,2014-04-24 09:18:00,
2014-04-24 05:23:00,43.0,4.6,30.12,East,90,2.0,2.3,20,0.00,CLR,,0.00,WeatherDisplay:10.37,2014-04-24 09:23:00,
2014-04-24 05:28:00,43.2,4.7,30.15,SE,135,1.6,3.5,20,0.00,CLR,,0.00,WeatherDisplay:10.37,2014-04-24 09:28:00,
2014-04-24 05:33:00,43.2,4.7,30.15,ENE,68,2.9,3.5,20,0.00,CLR,,0.00,WeatherDisplay:10.37,2014-04-24 09:33:00,
2014-04-24 05:38:00,43.2,4.7,30.15,ESE,112,2.2,3.5,20,0.00,CLR,,0.00,WeatherDisplay:10.37,2014-04-24 09:38:00,
2014-04-24 05:43:00,43.2,4.7,30.15,East,90,2.9,3.5,20,0.00,CLR,,0.00,WeatherDisplay:10.37,2014-04-24 09:43:00,
2014-04-24 05:48:00,43.2,4.7,30.15,ENE,68,3.8,4.6,20,0.00,CLR,,0.00,WeatherDisplay:10.37,2014-04-24 09:48:00,
2014-04-24 05:53:00,43.2,4.7,30.15,ENE,68,3.3,4.6,20,0.00,CLR,,0.00,WeatherDisplay:10.37,2014-04-24 09:53:00,
2014-04-24 05:58:00,43.2,4.7,30.15,East,90,2.6,3.5,20,0.00,CLR,,0.00,WeatherDisplay:10.37,2014-04-24 09:58:00,
2014-04-24 06:03:00,43.0,4.6,30.15,ENE,68,2.2,3.5,20,0.00,CLR,,0.00,WeatherDisplay:10.37,2014-04-24 10:03:00,
2014-04-24 06:08:00,43.0,4.6,30.15,ENE,68,2.9,3.5,20,0.00,CLR,,0.00,WeatherDisplay:10.37,2014-04-24 10:08:00,
2014-04-24 06:13:00,43.0,4.6,30.15,ENE,68,3.1,4.6,20,0.00,CLR,,0.00,WeatherDisplay:10.37,2014-04-24 10:13:00,
2014-04-24 06:18:00,42.8,4.4,30.15,ESE,112,2.9,4.6,20,0.00,CLR,,0.00,WeatherDisplay:10.37,2014-04-24 10:18:00,
2014-04-24 06:23:00,42.8,4.4,30.15,ESE,112,3.6,4.6,20,0.00,CLR,,0.00,WeatherDisplay:10.37,2014-04-24 10:23:00,
2014-04-24 06:28:00,42.8,4.4,30.18,ENE,68,2.4,5.8,20,0.00,CLR,,0.00,WeatherDisplay:10.37,2014-04-24 10:28:00,
2014-04-24 06:33:00,42.8,4.4,30.18,ENE,68,3.8,6.0,20,0.00,CLR,,0.00,WeatherDisplay:10.37,2014-04-24 10:33:00,
2014-04-24 06:38:00,42.8,4.4,30.18,ENE,68,3.3,4.6,20,0.00,CLR,,0.00,WeatherDisplay:10.37,2014-04-24 10:38:00,
2014-04-24 06:43:00,42.8,4.4,30.18,ESE,112,2.9,3.5,20,0.00,CLR,,0.00,WeatherDisplay:10.37,2014-04-24 10:43:00,
2014-04-24 06:48:00,42.8,4.4,30.18,SE,135,3.1,4.6,20,0.00,CLR,,0.00,WeatherDisplay:10.37,2014-04-24 10:48:00,
2014-04-24 06:53:00,42.8,4.4,30.18,East,90,4.3,4.6,20,0.00,CLR,,0.00,WeatherDisplay:10.37,2014-04-24 10:53:00,
2014-04-24 06:58:00,42.8,4.4,30.18,ENE,68,2.9,3.5,20,0.00,CLR,,0.00,WeatherDisplay:10.37,2014-04-24 10:58:00,
2014-04-24 07:03:00,42.8,4.4,30.18,East,90,2.9,3.6,20,0.00,CLR,,0.00,WeatherDisplay:10.37,2014-04-24 11:03:00,
2014-04-24 07:08:00,42.8,4.4,30.18,ESE,112,2.4,3.5,20,0.00,CLR,,0.00,WeatherDisplay:10.37,2014-04-24 11:08:00,
2014-04-24 07:13:00,42.8,4.4,30.18,East,90,2.6,3.5,20,0.00,CLR,,0.00,WeatherDisplay:10.37,2014-04-24 11:13:00,
2014-04-24 07:18:00,42.8,4.4,30.18,East,90,3.6,4.6,20,0.00,CLR,,0.00,WeatherDisplay:10.37,2014-04-24 11:18:00,
2014-04-24 07:23:00,42.8,4.4,30.18,ENE,68,3.6,4.6,20,0.00,CLR,,0.00,WeatherDisplay:10.37,2014-04-24 11:23:00,
2014-04-24 07:28:00,42.8,4.4,30.18,East,90,2.2,3.5,20,0.00,CLR,,0.00,WeatherDisplay:10.37,2014-04-24 11:28:00,
2014-04-24 07:33:00,42.8,4.4,30.18,ENE,68,4.5,5.8,20,0.00,CLR,,0.00,WeatherDisplay:10.37,2014-04-24 11:33:00,
2014-04-24 07:38:00,42.8,4.4,30.18,NNE,22,3.3,6.9,20,0.00,CLR,,0.00,WeatherDisplay:10.37,2014-04-24 11:38:00,
2014-04-24 07:43:00,42.6,5.3,30.18,ENE,68,4.0,6.0,21,0.00,CLR,,0.00,WeatherDisplay:10.37,2014-04-24 11:43:00,
2014-04-24 07:48:00,42.6,5.3,30.18,East,90,2.6,5.8,21,0.00,CLR,,0.00,WeatherDisplay:10.37,2014-04-24 11:48:00,
2014-04-24 07:53:00,42.6,5.3,30.18,ESE,112,5.9,6.9,21,0.00,CLR,,0.00,WeatherDisplay:10.37,2014-04-24 11:53:00,
2014-04-24 07:58:00,42.6,5.3,30.15,ENE,68,3.8,5.8,21,0.00,CLR,,0.00,WeatherDisplay:10.37,2014-04-24 11:58:00,
2014-04-24 08:03:00,42.6,5.3,30.15,SE,135,3.6,5.8,21,0.00,CLR,,0.00,WeatherDisplay:10.37,2014-04-24 12:03:00,
2014-04-24 08:08:00,42.6,5.3,30.15,East,90,3.6,5.8,21,0.00,CLR,,0.00,WeatherDisplay:10.37,2014-04-24 12:08:00,
2014-04-24 08:13:00,42.6,5.3,30.18,ESE,112,3.8,3.8,21,0.00,CLR,,0.00,WeatherDisplay:10.37,2014-04-24 12:13:00,
2014-04-24 08:18:00,42.8,4.4,30.18,East,90,3.6,4.6,20,0.00,CLR,,0.00,WeatherDisplay:10.37,2014-04-24 12:18:00,
2014-04-24 08:23:00,42.8,4.4,30.18,ESE,112,4.3,6.4,20,0.00,CLR,,0.00,WeatherDisplay:10.37,2014-04-24 12:23:00,
2014-04-24 08:28:00,43.0,4.6,30.18,East,90,3.6,3.6,20,0.00,CLR,,0.00,WeatherDisplay:10.37,2014-04-24 12:28:00,
2014-04-24 08:33:00,42.8,4.4,30.18,ENE,68,3.1,5.8,20,0.00,CLR,,0.00,WeatherDisplay:10.37,2014-04-24 12:33:00,
2014-04-24 08:38:00,43.0,4.6,30.18,ESE,112,5.6,6.9,20,0.00,CLR,,0.00,WeatherDisplay:10.37,2014-04-24 12:38:00,
2014-04-24 08:43:00,43.0,4.6,30.18,ESE,112,3.3,5.8,20,0.00,CLR,,0.00,WeatherDisplay:10.37,2014-04-24 12:43:00,
2014-04-24 08:48:00,43.0,4.6,30.18,ESE,112,4.7,8.1,20,0.00,CLR,,0.00,WeatherDisplay:10.37,2014-04-24 12:48:00,
2014-04-24 08:53:00,43.2,4.7,30.18,ESE,112,4.3,6.9,20,0.00,CLR,,0.00,WeatherDisplay:10.37,2014-04-24 12:53:00,
2014-04-24 08:58:00,43.3,4.9,30.15,ESE,112,4.7,5.8,20,0.00,CLR,,0.00,WeatherDisplay:10.37,2014-04-24 12:58:00,
2014-04-24 09:03:00,43.5,5.0,30.15,East,90,2.9,3.5,20,0.00,CLR,,0.00,WeatherDisplay:10.37,2014-04-24 13:03:00,
2014-04-24 09:08:00,43.7,5.2,30.15,ESE,112,2.6,3.5,20,0.00,CLR,,0.00,WeatherDisplay:10.37,2014-04-24 13:08:00,
2014-04-24 09:13:00,43.7,5.2,30.15,ENE,68,4.7,6.9,20,0.00,CLR,,0.00,WeatherDisplay:10.37,2014-04-24 13:13:00,
2014-04-24 09:18:00,43.9,5.3,30.15,ESE,112,6.0,8.1,20,0.00,CLR,,0.00,WeatherDisplay:10.37,2014-04-24 13:18:00,
2014-04-24 09:23:00,44.1,5.5,30.15,ESE,112,4.5,6.9,20,0.00,CLR,,0.00,WeatherDisplay:10.37,2014-04-24 13:23:00,
2014-04-24 09:28:00,44.4,5.8,30.18,ESE,112,3.6,6.9,20,0.00,CLR,,0.00,WeatherDisplay:10.37,2014-04-24 13:28:00,
2014-04-24 09:33:00,44.6,5.9,30.18,East,90,3.1,8.1,20,0.00,CLR,,0.00,WeatherDisplay:10.37,2014-04-24 13:33:00,
2014-04-24 09:38:00,44.8,6.1,30.18,ESE,112,4.9,6.9,20,0.00,CLR,,0.00,WeatherDisplay:10.37,2014-04-24 13:38:00,
2014-04-24 09:43:00,45.1,6.4,30.18,ESE,112,4.3,5.6,20,0.00,CLR,,0.00,WeatherDisplay:10.37,2014-04-24 13:43:00,
2014-04-24 09:48:00,45.3,6.5,30.18,ENE,68,2.9,4.6,20,0.00,CLR,,0.00,WeatherDisplay:10.37,2014-04-24 13:48:00,
2014-04-24 09:53:00,45.7,6.8,30.18,ESE,112,3.8,3.8,20,0.00,CLR,,0.00,WeatherDisplay:10.37,2014-04-24 13:53:00,
2014-04-24 09:58:00,45.9,7.0,30.18,SE,135,4.5,6.2,20,0.00,CLR,,0.00,WeatherDisplay:10.37,2014-04-24 13:58:00,
2014-04-24 10:03:00,46.0,7.1,30.18,ESE,112,4.7,6.0,20,0.00,CLR,,0.00,WeatherDisplay:10.37,2014-04-24 14:03:00,
2014-04-24 10:08:00,46.4,6.3,30.18,ESE,112,4.5,8.1,19,0.00,CLR,,0.00,WeatherDisplay:10.37,2014-04-24 14:08:00,
2014-04-24 10:13:00,46.6,6.4,30.15,ESE,112,6.4,8.5,19,0.00,CLR,,0.00,WeatherDisplay:10.37,2014-04-24 14:13:00,
2014-04-24 10:18:00,46.8,6.6,30.15,ESE,112,6.0,6.9,19,0.00,CLR,,0.00,WeatherDisplay:10.37,2014-04-24 14:18:00,
2014-04-24 10:23:00,46.9,6.7,30.15,ESE,112,6.4,10.0,19,0.00,CLR,,0.00,WeatherDisplay:10.37,2014-04-24 14:23:00,
2014-04-24 10:28:00,47.5,7.2,30.18,South,180,6.4,10.4,19,0.00,CLR,,0.00,WeatherDisplay:10.37,2014-04-24 14:28:00,
2014-04-24 10:33:00,48.0,7.6,30.18,SSE,158,7.6,11.5,19,0.00,CLR,,0.00,WeatherDisplay:10.37,2014-04-24 14:33:00,
2014-04-24 10:38:00,48.6,8.1,30.18,ESE,112,8.7,11.5,19,0.00,CLR,,0.00,WeatherDisplay:10.37,2014-04-24 14:38:00,
2014-04-24 10:43:00,48.9,8.4,30.15,SE,135,6.9,10.4,19,0.00,CLR,,0.00,WeatherDisplay:10.37,2014-04-24 14:43:00,
2014-04-24 10:48:00,49.3,8.7,30.15,SE,135,6.9,11.5,19,0.00,CLR,,0.00,WeatherDisplay:10.37,2014-04-24 14:48:00,
2014-04-24 10:53:00,49.6,9.0,30.15,SSE,158,9.2,10.4,19,0.00,CLR,,0.00,WeatherDisplay:10.37,2014-04-24 14:53:00,
2014-04-24 10:58:00,50.0,9.3,30.18,SSE,158,7.1,9.2,19,0.00,CLR,,0.00,WeatherDisplay:10.37,2014-04-24 14:58:00,
2014-04-24 11:03:00,50.2,9.4,30.18,SE,135,7.6,9.2,19,0.00,CLR,,0.00,WeatherDisplay:10.37,2014-04-24 15:03:00,
2014-04-24 11:08:00,50.5,9.7,30.18,ESE,112,8.7,11.5,19,0.00,CLR,,0.00,WeatherDisplay:10.37,2014-04-24 15:08:00,
2014-04-24 11:13:00,50.7,9.9,30.18,SSE,158,6.0,6.9,19,0.00,CLR,,0.00,WeatherDisplay:10.37,2014-04-24 15:13:00,
2014-04-24 11:18:00,51.3,10.3,30.18,SSE,158,11.4,15.0,19,0.00,CLR,,0.00,WeatherDisplay:10.37,2014-04-24 15:18:00,
2014-04-24 11:23:00,51.4,10.5,30.18,SSE,158,11.8,15.0,19,0.00,CLR,,0.00,WeatherDisplay:10.37,2014-04-24 15:23:00,
2014-04-24 11:28:00,51.8,9.6,30.18,SE,135,9.7,11.5,18,0.00,CLR,,0.00,WeatherDisplay:10.37,2014-04-24 15:28:00,
2014-04-24 11:33:00,52.0,9.7,30.18,SSE,158,11.4,12.7,18,0.00,CLR,,0.00,WeatherDisplay:10.37,2014-04-24 15:33:00,
2014-04-24 11:38:00,52.3,10.0,30.18,SSE,158,8.7,11.5,18,0.00,CLR,,0.00,WeatherDisplay:10.37,2014-04-24 15:38:00,
2014-04-24 11:43:00,52.7,10.3,30.18,SE,135,8.7,12.7,18,0.00,CLR,,0.00,WeatherDisplay:10.37,2014-04-24 15:43:00,
2014-04-24 11:48:00,52.9,10.5,30.18,SSE,158,9.0,9.2,18,0.00,CLR,,0.00,WeatherDisplay:10.37,2014-04-24 15:48:00,
2014-04-24 11:53:00,52.9,10.5,30.18,SSE,158,7.8,13.0,18,0.00,CLR,,0.00,WeatherDisplay:10.37,2014-04-24 15:53:00,
2014-04-24 11:58:00,53.2,10.8,30.18,SSE,158,5.9,6.9,18,0.00,CLR,,0.00,WeatherDisplay:10.37,2014-04-24 15:58:00,
2014-04-24 12:03:00,53.6,11.0,30.18,ESE,112,5.4,9.2,18,0.00,CLR,,0.00,WeatherDisplay:10.37,2014-04-24 16:03:00,
2014-04-24 12:08:00,53.8,11.2,30.18,SW,225,6.2,6.9,18,0.00,CLR,,0.00,WeatherDisplay:10.37,2014-04-24 16:08:00,
2014-04-24 12:13:00,53.8,11.2,30.15,SSE,158,7.4,11.5,18,0.00,CLR,,0.00,WeatherDisplay:10.37,2014-04-24 16:13:00,
2014-04-24 12:18:00,53.8,11.2,30.15,SE,135,7.8,10.4,18,0.00,CLR,,0.00,WeatherDisplay:10.37,2014-04-24 16:18:00,
2014-04-24 12:23:00,54.0,11.3,30.15,SSE,158,7.1,12.7,18,0.00,CLR,,0.00,WeatherDisplay:10.37,2014-04-24 16:23:00,
2014-04-24 12:28:00,54.1,11.5,30.12,SE,135,8.1,11.5,18,0.00,CLR,,0.00,WeatherDisplay:10.37,2014-04-24 16:28:00,
2014-04-24 12:33:00,54.1,11.5,30.12,ESE,112,8.5,10.4,18,0.00,CLR,,0.00,WeatherDisplay:10.37,2014-04-24 16:33:00,
2014-04-24 12:38:00,54.0,11.3,30.12,ESE,112,7.4,9.4,18,0.00,CLR,,0.00,WeatherDisplay:10.37,2014-04-24 16:38:00,
2014-04-24 12:43:00,53.8,11.2,30.12,ESE,112,7.6,11.5,18,0.00,CLR,,0.00,WeatherDisplay:10.37,2014-04-24 16:43:00,
2014-04-24 12:48:00,53.8,11.2,30.12,SSE,158,6.9,10.4,18,0.00,CLR,,0.00,WeatherDisplay:10.37,2014-04-24 16:48:00,
2014-04-24 12:53:00,54.1,11.5,30.12,ENE,68,8.5,11.5,18,0.00,CLR,,0.00,WeatherDisplay:10.37,2014-04-24 16:53:00,
2014-04-24 12:58:00,54.3,11.6,30.09,SE,135,8.7,11.5,18,0.00,CLR,,0.00,WeatherDisplay:10.37,2014-04-24 16:58:00,
2014-04-24 13:03:00,54.3,11.6,30.09,SSE,158,8.5,10.4,18,0.00,CLR,,0.00,WeatherDisplay:10.37,2014-04-24 17:03:00,
2014-04-24 13:08:00,54.1,11.5,30.09,ESE,112,10.5,10.5,18,0.00,CLR,,0.00,WeatherDisplay:10.37,2014-04-24 17:08:00,
2014-04-24 13:13:00,54.0,11.3,30.09,ESE,112,8.7,11.5,18,0.00,CLR,,0.00,WeatherDisplay:10.37,2014-04-24 17:13:00,
2014-04-24 13:18:00,54.0,11.3,30.09,ESE,112,8.7,15.6,18,0.00,CLR,,0.00,WeatherDisplay:10.37,2014-04-24 17:18:00,
2014-04-24 13:23:00,53.8,11.2,30.09,ESE,112,6.7,9.2,18,0.00,CLR,,0.00,WeatherDisplay:10.37,2014-04-24 17:23:00,
2014-04-24 13:28:00,54.1,11.5,30.12,SE,135,10.2,10.4,18,0.00,CLR,,0.00,WeatherDisplay:10.37,2014-04-24 17:28:00,
2014-04-24 13:33:00,54.1,11.5,30.12,SSE,158,12.3,13.8,18,0.00,CLR,,0.00,WeatherDisplay:10.37,2014-04-24 17:33:00,
2014-04-24 13:38:00,54.3,11.6,30.12,SE,135,9.4,15.0,18,0.00,CLR,,0.00,WeatherDisplay:10.37,2014-04-24 17:38:00,
2014-04-24 13:43:00,54.3,11.6,30.12,ESE,112,8.5,12.7,18,0.00,CLR,,0.00,WeatherDisplay:10.37,2014-04-24 17:43:00,
2014-04-24 13:48:00,54.5,11.8,30.12,ENE,68,7.1,12.7,18,0.00,CLR,,0.00,WeatherDisplay:10.37,2014-04-24 17:48:00,
2014-04-24 13:53:00,54.3,11.6,30.12,ESE,112,7.8,11.5,18,0.00,CLR,,0.00,WeatherDisplay:10.37,2014-04-24 17:53:00,
2014-04-24 13:59:00,54.3,11.6,30.12,ENE,68,9.4,11.5,18,0.00,CLR,,0.00,WeatherDisplay:10.37,2014-04-24 17:59:00,
2014-04-24 14:04:00,54.3,11.6,30.12,ESE,112,5.9,12.7,18,0.00,CLR,,0.00,WeatherDisplay:10.37,2014-04-24 18:04:00,
2014-04-24 14:09:00,54.5,11.8,30.12,SSE,158,4.9,10.9,18,0.00,CLR,,0.00,WeatherDisplay:10.37,2014-04-24 18:09:00,
2014-04-24 14:14:00,54.7,11.9,30.09,SE,135,11.8,13.8,18,0.00,CLR,,0.00,WeatherDisplay:10.37,2014-04-24 18:14:00,
2014-04-24 14:19:00,54.7,11.9,30.09,SE,135,10.7,12.7,18,0.00,CLR,,0.00,WeatherDisplay:10.37,2014-04-24 18:19:00,
2014-04-24 14:24:00,54.5,11.8,30.09,ESE,112,9.2,17.0,18,0.00,CLR,,0.00,WeatherDisplay:10.37,2014-04-24 18:24:00,
2014-04-24 14:29:00,54.5,11.8,30.09,SE,135,9.4,13.8,18,0.00,CLR,,0.00,WeatherDisplay:10.37,2014-04-24 18:29:00,
2014-04-24 14:34:00,54.5,11.8,30.09,ESE,112,5.9,8.5,18,0.00,CLR,,0.00,WeatherDisplay:10.37,2014-04-24 18:34:00,
2014-04-24 14:39:00,54.5,11.8,30.09,ESE,112,9.4,12.7,18,0.00,CLR,,0.00,WeatherDisplay:10.37,2014-04-24 18:39:00,
2014-04-24 14:41:00,54.5,11.8,30.09,SE,135,7.1,9.2,18,0.00,CLR,,0.00,WeatherDisplay:10.37,2014-04-24 18:41:00,
2014-04-24 14:46:00,54.7,11.9,30.09,SE,135,7.8,9.2,18,0.00,CLR,,0.00,WeatherDisplay:10.37,2014-04-24 18:46:00,
2014-04-24 14:51:00,54.7,11.9,30.09,ESE,112,5.4,9.2,18,0.00,CLR,,0.00,WeatherDisplay:10.37,2014-04-24 18:51:00,
2014-04-24 14:56:00,55.0,12.2,30.09,SSE,158,10.0,12.7,18,0.00,CLR,,0.00,WeatherDisplay:10.37,2014-04-24 18:56:00,
2014-04-24 15:01:00,55.4,11.2,30.09,SSE,158,10.5,15.0,17,0.00,CLR,,0.00,WeatherDisplay:10.37,2014-04-24 19:01:00,
2014-04-24 15:06:00,55.6,11.4,30.09,SE,135,6.2,10.4,17,0.00,CLR,,0.00,WeatherDisplay:10.37,2014-04-24 19:06:00,